Regional Weather Roundup
Issued by NWS

Home | Current Version | Previous Version | Text Only | Print | Product List | Glossary On
Versions: 1 2 3 4 5 6 7 8 9 10 11 12 13 14 15 16 17 18 19 20 21 22 23 24 25 26 27 28 29 30 31 32 33 34 35 36 37 38 39 40 41 42 43 44 45 46 47 48 49 50
000
ASUS43 KMPX 311210
RWRMN
WEATHER ROUNDUP FOR MINNESOTA
NATIONAL WEATHER SERVICE TWIN CITIES/CHANHASSEN MN
600 AM CST SAT JAN 31 2015


NOTE: "FAIR" INDICATES FEW OR NO CLOUDS BELOW 12,000 FEET WITH NO
SIGNIFICANT WEATHER AND/OR OBSTRUCTIONS TO VISIBILITY. N/A MEANS
CURRENT SKY AND/OR WEATHER CONDITIONS ARE NOT AVAILABLE.

MNZ060>063-068>070-311300-
   Twin Cities Metro

CITY           SKY/WX    TMP DP  RH WIND       PRES   REMARKS
TWIN CITIES    PTCLDY    20  17  88 W3        30.14R
6HR MIN TEMP:  20; 6HR MAX TEMP:  25;

ST PAUL        CLEAR     23  20  88 CALM      30.16R
CRYSTAL        CLEAR     19  15  84 CALM      30.14R
BLAINE         PTCLDY    25  23  93 NW3       30.14R
LAKEVILLE      CLOUDY    21  21 100 CALM      30.13S
EDEN PRAIRIE   PTCLDY    19  15  84 CALM      30.13R
6HR MIN TEMP:  18; 6HR MAX TEMP:  24;

SOUTH ST PAUL  PTCLDY    24  20  87 CALM      30.14S
LAKE ELMO      CLOUDY    27  23  86 CALM      30.15R
$$
MNZ001>005-007-008-013>017-022>024-027-028-311300-
   Northwest Minnesota

CITY           SKY/WX    TMP DP  RH WIND       PRES   REMARKS
BEMIDJI        FLURRIES  15  10  82 N12       30.20R WCI   2
HALLOCK        PTCLDY     3  -4  72 N17G23    30.38R WCI -17
ROSEAU         PTCLDY     3  -4  72 N10         N/A  WCI -12
WARROAD        PTCLDY     1  -6  71 NW7       30.30R WCI -11
THIEF RVR FALL PTCLDY     5  -4  66 N10       30.29R WCI -10
CROOKSTON      PTCLDY     9   1  72 N15       30.34R WCI  -8
FOSSTON        CLOUDY     9   5  85 N14       30.26R WCI  -8
DETROIT LAKES  CLOUDY    18  16  93 N12G20    30.23R WCI   5
MOORHEAD       CLOUDY    16  12  86 N21       30.28F WCI  -2
PARK RAPIDS    CLOUDY    20  16  84 N10       30.18R WCI   9
MAHNOMEN       CLOUDY    15  10  83 N12       30.25R WCI   1
$$
MNZ006-009>011-018-025>026-311300-
   North Central Minnesota

CITY           SKY/WX    TMP DP  RH WIND       PRES   REMARKS
BAUDETTE       PTCLDY     2  -4  76 NW13      30.25S WCI -15
FLAG ISLAND    PTCLDY     0  -6  78 NW20      30.28R WCI -22
INTL FALLS     CLOUDY    11   5  77 NW9G21    30.21R WCI  -2
6HR MIN TEMP:  11; 6HR MAX TEMP:  16; 6HR PCP: TRACE;

WASKISH        PTCLDY     9   3  78 NW8       30.25R WCI  -4
BIG FORK       FLURRIES  16  10  79 N5        30.19R WCI   9
LONGVILLE      CLOUDY    19  16  86 N6        30.19R WCI  11
GRAND RAPIDS   CLOUDY    19  12  73 NW15      30.15R WCI   5
CRANE LAKE     LGT SNOW  10   7  85 NW5       30.21R WCI   2
ORR            FLURRIES  12   7  79 NW7       30.15R WCI   2
COOK           FLURRIES  14  10  85 NW9       30.16R WCI   2
WALKER         CLOUDY    18  13  81 N9G17     30.20R WCI   6
$$
MNZ012-019>021-037-311300-
   Northeast Minnesota

CITY           SKY/WX    TMP DP  RH WIND       PRES   REMARKS
DULUTH         CLOUDY    20  14  77 NW9       30.11R WCI   9
6HR MIN TEMP:  18; 6HR MAX TEMP:  21;

ELY            FLURRIES  12  10  92 NW8       30.12R WCI   1
HIBBING        CLOUDY    19  12  74 N16       30.14R WCI   4
EVELETH        FLURRIES  18  14  86 N7        30.14R WCI   8
DULUTH HARBOR  CLOUDY    21  16  79 CALM      30.18R
TWO HARBORS    CLOUDY    21  16  79 NW5       30.11R WCI  15
SILVER BAY     CLOUDY    19  14  79 W3        30.10R
GRAND MARAIS     N/A     19  12  74 CALM      30.13R
G MARAIS ARPRT FLURRIES  10   5  79 NW8       30.04R WCI  -1
$$
MNZ029>031-032-039>041-046>048-054>057-064-311300-
   West Central Minnesota

CITY           SKY/WX    TMP DP  RH WIND       PRES   REMARKS
FERGUS FALLS   CLOUDY    18  16  93 N14G20    30.25R WCI   4
WHEATON        CLOUDY    18  16  93 N16       30.25R WCI   3
MORRIS         CLOUDY    21  19  93 N17       30.18S FOG     WCI   7
ALEXANDRIA     CLOUDY    21  19  92 N10       30.17R WCI  10
ELBOW LAKE     CLOUDY    19  17  92 N14       30.19S WCI   6
WADENA         CLOUDY    21  19  93 N5        30.18R WCI  15
GLENWOOD       CLOUDY    21  21 100 N9        30.16S FOG     WCI  11
APPLETON       CLOUDY    23  19  86 N20       30.19S WCI   8
BENSON         CLOUDY    25  21  86 NE13      30.17S WCI  13
ORTONVILLE     CLOUDY    21  18  86 N15       30.19S WCI   8
MADISON        CLOUDY    27  25  93 N17       30.19R WCI  14
WILLMAR        CLOUDY    25  21  86 N14       30.16S WCI  13
$$
MNZ033>034-036-042>043-049>051-058-059-311300-
   Central Minnesota

CITY           SKY/WX    TMP DP  RH WIND       PRES   REMARKS
ST CLOUD       CLOUDY    24  20  84 N10       30.15R WCI  14
6HR MIN TEMP:  15; 6HR MAX TEMP:  24;

SAUK CENTRE    CLOUDY    22  21  94 N9        30.16S WCI  12
PAYNESVILLE    CLOUDY    21  21  98 NW9       30.16R WCI  11
AITKIN         CLOUDY    27  19  74 NW7       30.16R WCI  19
PINE RIVER     CLOUDY    19  18  93 N10       30.21R WCI   8
BRAINERD       CLOUDY    23  18  81 N10       30.18R WCI  12
STAPLES        CLOUDY    21  19  93 N10       30.18R WCI  10
LONG PRAIRIE   CLOUDY    23  21  93 N8        30.16R WCI  14
LITTLE FALLS   CLOUDY    27  21  80 N3        30.17R
LITCHFIELD     CLOUDY    25  25 100 N12       30.15R WCI  14
BUFFALO        CLEAR     16  14  92 CALM      30.16R
MAPLE LAKE     CLOUDY    25  25  98 N8        30.16R WCI  16
$$
MNZ037-044-045-052-053-311300-
   East Central Minnesota

CITY           SKY/WX    TMP DP  RH WIND       PRES   REMARKS
PRINCETON      CLOUDY    27  23  86 NW5       30.15R WCI  21
MORA           CLOUDY    27  21  80 N3        30.17R
CAMBRIDGE      CLOUDY    28  19  69 N5        30.13R WCI  23
RUSH CITY      CLOUDY    25  21  83 N3        30.15S
MOOSE LAKE     CLOUDY    25  19  80 N5        30.14R WCI  19
HINCKLEY       CLOUDY    25  19  80 CALM      30.15R
CLOQUET        CLOUDY    21  16  79 NW6       30.13R WCI  14
MCGREGOR       CLOUDY    25  19  80 NW12      30.16R WCI  14
$$
MNZ071>073-080-081-089-090-097-098-311300-
   Southwest Minnesota

CITY           SKY/WX    TMP DP  RH WIND       PRES   REMARKS
MONTEVIDEO     CLOUDY    23  23 100 N14       30.18R FOG     WCI  11
GRANITE FALLS  CLOUDY    25  23  92 N12G20    30.18S WCI  14
CANBY          CLOUDY    25  24  96 N13G20    30.18R FOG     WCI  14
MARSHALL       CLOUDY    25  21  86 N16       30.17S WCI  12
REDWOOD FALLS  PTCLDY    23  20  88 N9        30.15S WCI  13
OLIVIA         PTCLDY    21  19  93 N6        30.15R WCI  14
PIPESTONE      CLOUDY    25  23  93 NE15      30.11R FOG     WCI  12
WINDOM         MOCLDY    25  23  93 NW8       30.13R WCI  16
WORTHINGTON    MOCLDY    25  21  86 N7        30.13S WCI  17
JACKSON        MOCLDY    28  25  86 NW3       30.12S
TRACY          CLOUDY    25  24  96 N17       30.14S FOG     WCI  11
SLAYTON        CLOUDY    24  23  96 N15       30.13R FOG     WCI  11
$$
MNZ065>067-074>077-082>085-091>093-311300-
   South Central Minnesota

CITY           SKY/WX    TMP DP  RH WIND       PRES   REMARKS
MANKATO        PTCLDY    21  18  86 CALM      30.13S
NEW ULM        PTCLDY    23  21  93 NW8       30.13S FOG     WCI  14
ST JAMES       PTCLDY    25  23  93 NW7       30.14S WCI  17
FAIRMONT       PTCLDY    25  19  80 W6        30.12S WCI  18
GLENCOE        PTCLDY    24  24  99 N5        30.13S FOG     WCI  18
FARIBAULT      CLEAR     18  18 100 CALM      30.13S
OWATONNA       CLEAR     21  19  93 CALM      30.12S
WASECA         CLEAR     23  21  93 CALM      30.13F
ALBERT LEA     PTCLDY    25  23  93 W3        30.12S
$$
MNZ078>079-086>088-094>096-311300-
   Southeast Minnesota

CITY           SKY/WX    TMP DP  RH WIND       PRES   REMARKS
ROCHESTER      PTCLDY    22  18  85 W9        30.12R WCI  12
6HR MIN TEMP:  20; 6HR MAX TEMP:  23;

RED WING       CLOUDY    25  19  80 CALM      30.14R
STANTON        CLOUDY    24  21  87 CALM      30.13S
DODGE CENTER   PTCLDY    19  19 100 W8        30.11S WCI   9
WINONA         CLOUDY    25  19  80 CALM      30.17R
AUSTIN         PTCLDY    18  16  93 CALM      30.12S
PRESTON        CLEAR     21  17  86 SW5       30.13R WCI  14
$$
ABBREVIATIONS USED IN REMARKS
   TC - TEMPERATURES IN CELSIUS
  WCI - WIND CHILL INDEX
   HX - HEAT INDEX
  VSB - VISIBILITY
$$



USA.gov is the U.S. government's official web portal to all federal, state and local government web resources and services.